Location: Hackbridge
(51.3833°N, 0.1500°W)
Time: 11:55:08
(UTC+00:00)

Cosmos 1626 Rocket - Pass Details

Date: 13 October 2019
Orbit: 604 x 630 km, 82.5° (Epoch: 16 November)

Event Time Altitude Azimuth Distance (km) Brightness Sun altitude
Rises 17:41:28 0° 346° (NNW) 2,885 7.1 -5.3°
Reaches altitude 10° 17:43:43 10° 342° (NNW) 1,979 6.3 -5.6°
Maximum altitude 17:47:59 55° 265° (W) 745 4.5 -6.3°
Drops below altitude 10° 17:52:16 10° 188° (S) 1,979 6.3 -7.0°
Sets 17:54:31 0° 184° (S) 2,884 7.1 -7.3°
